Year,Month,Day,Hour,Minute,Value (Times are PST for temperature in C)
2010,02,21,00,00,2.10
2010,02,21,00,01,2.10
2010,02,21,00,02,2.20
2010,02,21,00,03,2.20
2010,02,21,00,04,2.20
2010,02,21,00,05,2.30
2010,02,21,00,06,2.30
2010,02,21,00,07,2.30
2010,02,21,00,08,2.30
2010,02,21,00,09,2.30
2010,02,21,00,10,2.40
2010,02,21,00,11,2.40
2010,02,21,00,12,2.40
2010,02,21,00,13,2.40
2010,02,21,00,14,2.40
2010,02,21,00,15,2.50
2010,02,21,00,16,2.50
2010,02,21,00,17,2.50
2010,02,21,00,18,2.50
2010,02,21,00,19,2.50
2010,02,21,00,20,2.50
2010,02,21,00,21,2.60
2010,02,21,00,22,2.60
2010,02,21,00,23,2.60
2010,02,21,00,24,2.60
2010,02,21,00,25,2.60
2010,02,21,00,26,2.60
2010,02,21,00,27,2.60
2010,02,21,00,28,2.60
2010,02,21,00,29,2.60
2010,02,21,00,30,2.60
2010,02,21,00,31,2.60
2010,02,21,00,32,2.60
2010,02,21,00,33,2.60
2010,02,21,00,34,2.60
2010,02,21,00,35,2.60
2010,02,21,00,36,2.60
2010,02,21,00,37,2.60
2010,02,21,00,38,2.50
2010,02,21,00,39,2.50
2010,02,21,00,40,2.50
2010,02,21,00,41,2.50
2010,02,21,00,42,2.50
2010,02,21,00,43,2.50
2010,02,21,00,44,2.60
2010,02,21,00,45,2.60
2010,02,21,00,46,2.50
2010,02,21,00,47,2.50
2010,02,21,00,48,2.50
2010,02,21,00,49,2.50
2010,02,21,00,50,2.40
2010,02,21,00,51,2.40
2010,02,21,00,52,2.40
2010,02,21,00,53,2.30
2010,02,21,00,54,2.30
2010,02,21,00,55,2.30
2010,02,21,00,56,2.30
2010,02,21,00,57,2.30
2010,02,21,00,58,2.30
2010,02,21,00,59,2.30
2010,02,21,01,00,2.20
2010,02,21,01,01,2.20
2010,02,21,01,02,2.20
2010,02,21,01,03,2.30
2010,02,21,01,04,2.30
2010,02,21,01,05,2.30
2010,02,21,01,06,2.30
2010,02,21,01,07,2.30
2010,02,21,01,08,2.30
2010,02,21,01,09,2.40
2010,02,21,01,10,2.40
2010,02,21,01,11,2.40
2010,02,21,01,12,2.40
2010,02,21,01,13,2.40
2010,02,21,01,14,2.30
2010,02,21,01,15,2.30
2010,02,21,01,16,2.30
2010,02,21,01,17,2.30
2010,02,21,01,18,2.30
2010,02,21,01,19,2.20
2010,02,21,01,20,2.20
2010,02,21,01,21,2.20
2010,02,21,01,22,2.10
2010,02,21,01,23,2.10
2010,02,21,01,24,2.00
2010,02,21,01,25,2.00
2010,02,21,01,26,2.00
2010,02,21,01,27,2.00
2010,02,21,01,28,2.00
2010,02,21,01,29,2.00
2010,02,21,01,30,2.00
2010,02,21,01,31,2.10
2010,02,21,01,32,2.10
2010,02,21,01,33,2.10
2010,02,21,01,34,2.10
2010,02,21,01,35,2.10
2010,02,21,01,36,2.10
2010,02,21,01,37,2.10
2010,02,21,01,38,2.20
2010,02,21,01,39,2.20
2010,02,21,01,40,2.20
2010,02,21,01,41,2.20
2010,02,21,01,42,2.30
2010,02,21,01,43,2.30
2010,02,21,01,44,2.30
2010,02,21,01,45,2.30
2010,02,21,01,46,2.30
2010,02,21,01,47,2.30
2010,02,21,01,48,2.30
2010,02,21,01,49,2.30
2010,02,21,01,50,2.30
2010,02,21,01,51,2.30
2010,02,21,01,52,2.30
2010,02,21,01,53,2.20
2010,02,21,01,54,2.20
2010,02,21,01,55,2.20
2010,02,21,01,56,2.20
2010,02,21,01,57,2.20
2010,02,21,01,58,2.10
2010,02,21,01,59,2.10
2010,02,21,02,00,2.10
2010,02,21,02,01,2.10
2010,02,21,02,02,2.10
2010,02,21,02,03,2.10
2010,02,21,02,04,2.10
2010,02,21,02,05,2.10
2010,02,21,02,06,2.10
2010,02,21,02,07,2.10
2010,02,21,02,08,2.10
2010,02,21,02,09,2.10
2010,02,21,02,10,2.10
2010,02,21,02,11,2.10
2010,02,21,02,12,2.10
2010,02,21,02,13,2.10
2010,02,21,02,14,2.10
2010,02,21,02,15,2.10
2010,02,21,02,16,2.10
2010,02,21,02,17,2.10
2010,02,21,02,18,2.10
2010,02,21,02,19,2.10
2010,02,21,02,20,2.10
2010,02,21,02,21,2.10
2010,02,21,02,22,2.10
2010,02,21,02,23,2.10
2010,02,21,02,24,2.10
2010,02,21,02,25,2.10
2010,02,21,02,26,2.10
2010,02,21,02,27,2.10
2010,02,21,02,28,2.10
2010,02,21,02,29,2.10
2010,02,21,02,30,2.10
2010,02,21,02,31,2.10
2010,02,21,02,32,2.10
2010,02,21,02,33,2.10
2010,02,21,02,34,2.10
2010,02,21,02,35,2.10
2010,02,21,02,36,2.10
2010,02,21,02,37,2.10
2010,02,21,02,38,2.10
2010,02,21,02,39,2.10
2010,02,21,02,40,2.10
2010,02,21,02,41,2.10
2010,02,21,02,42,2.10
2010,02,21,02,43,2.20
2010,02,21,02,44,2.20
2010,02,21,02,45,2.20
2010,02,21,02,46,2.20
2010,02,21,02,47,2.30
2010,02,21,02,48,2.30
2010,02,21,02,49,2.30
2010,02,21,02,50,2.30
2010,02,21,02,51,2.30
2010,02,21,02,52,2.30
2010,02,21,02,53,2.30
2010,02,21,02,54,2.30
2010,02,21,02,55,2.40
2010,02,21,02,56,2.40
2010,02,21,02,57,2.40
2010,02,21,02,58,2.40
2010,02,21,02,59,2.40
2010,02,21,03,00,2.50
2010,02,21,03,01,2.40
2010,02,21,03,02,2.40
2010,02,21,03,03,2.40
2010,02,21,03,04,2.40
2010,02,21,03,05,2.40
2010,02,21,03,06,2.40
2010,02,21,03,07,2.40
2010,02,21,03,08,2.40
2010,02,21,03,09,2.40
2010,02,21,03,10,2.30
2010,02,21,03,11,2.30
2010,02,21,03,12,2.30
2010,02,21,03,13,2.30
2010,02,21,03,14,2.30
2010,02,21,03,15,2.30
2010,02,21,03,16,2.20
2010,02,21,03,17,2.20
2010,02,21,03,18,2.20
2010,02,21,03,19,2.20
2010,02,21,03,20,2.20
2010,02,21,03,21,2.20
2010,02,21,03,22,2.20
2010,02,21,03,23,2.20
2010,02,21,03,24,2.20
2010,02,21,03,25,2.20
2010,02,21,03,26,2.10
2010,02,21,03,27,2.10
2010,02,21,03,28,2.10
2010,02,21,03,29,2.10
2010,02,21,03,30,2.10
2010,02,21,03,31,2.00
2010,02,21,03,32,2.10
2010,02,21,03,33,2.10
2010,02,21,03,34,2.10
2010,02,21,03,35,2.10
2010,02,21,03,36,2.10
2010,02,21,03,37,2.10
2010,02,21,03,38,2.00
2010,02,21,03,39,2.00
2010,02,21,03,40,2.00
2010,02,21,03,41,2.00
2010,02,21,03,42,2.00
2010,02,21,03,43,2.00
2010,02,21,03,44,2.00
2010,02,21,03,45,2.00
2010,02,21,03,46,2.00
2010,02,21,03,47,2.00
2010,02,21,03,48,2.00
2010,02,21,03,49,1.90
2010,02,21,03,50,1.90
2010,02,21,03,51,1.90
2010,02,21,03,52,1.90
2010,02,21,03,53,1.80
2010,02,21,03,54,1.80
2010,02,21,03,55,1.80
2010,02,21,03,56,1.80
2010,02,21,03,57,1.80
2010,02,21,03,58,1.70
2010,02,21,03,59,1.70
2010,02,21,04,00,1.70
2010,02,21,04,01,1.70
2010,02,21,04,02,1.60
2010,02,21,04,03,1.60
2010,02,21,04,04,1.60
2010,02,21,04,05,1.60
2010,02,21,04,06,1.60
2010,02,21,04,07,1.60
2010,02,21,04,08,1.60
2010,02,21,04,09,1.60
2010,02,21,04,10,1.70
2010,02,21,04,11,1.70
2010,02,21,04,12,1.70
2010,02,21,04,13,1.70
2010,02,21,04,14,1.70
2010,02,21,04,15,1.70
2010,02,21,04,16,1.70
2010,02,21,04,17,1.60
2010,02,21,04,18,1.60
2010,02,21,04,19,1.60
2010,02,21,04,20,1.60
2010,02,21,04,21,1.50
2010,02,21,04,22,1.60
2010,02,21,04,23,1.60
2010,02,21,04,24,1.60
2010,02,21,04,25,1.70
2010,02,21,04,26,1.70
2010,02,21,04,27,1.70
2010,02,21,04,28,1.80
2010,02,21,04,29,1.80
2010,02,21,04,30,1.80
2010,02,21,04,31,1.90
2010,02,21,04,32,1.90
2010,02,21,04,33,1.90
2010,02,21,04,34,1.90
2010,02,21,04,35,1.90
2010,02,21,04,36,1.90
2010,02,21,04,37,1.90
2010,02,21,04,38,2.00
2010,02,21,04,39,1.90
2010,02,21,04,40,1.90
2010,02,21,04,41,1.80
2010,02,21,04,42,1.80
2010,02,21,04,43,1.80
2010,02,21,04,44,1.70
2010,02,21,04,45,1.70
2010,02,21,04,46,1.60
2010,02,21,04,47,1.60
2010,02,21,04,48,1.60
2010,02,21,04,49,1.60
2010,02,21,04,50,1.60
2010,02,21,04,51,1.60
2010,02,21,04,52,1.60
2010,02,21,04,53,1.50
2010,02,21,04,54,1.50
2010,02,21,04,55,1.50
2010,02,21,04,56,1.50
2010,02,21,04,57,1.40
2010,02,21,04,58,1.40
2010,02,21,04,59,1.40
2010,02,21,05,00,1.50
2010,02,21,05,01,1.50
2010,02,21,05,02,1.50
2010,02,21,05,03,1.50
2010,02,21,05,04,1.50
2010,02,21,05,05,1.50
2010,02,21,05,06,1.50
2010,02,21,05,07,1.50
2010,02,21,05,08,1.50
2010,02,21,05,09,1.50
2010,02,21,05,10,1.50
2010,02,21,05,11,1.60
2010,02,21,05,12,1.60
2010,02,21,05,13,1.60
2010,02,21,05,14,1.60
2010,02,21,05,15,1.70
2010,02,21,05,16,1.70
2010,02,21,05,17,1.70
2010,02,21,05,18,1.70
2010,02,21,05,19,1.70
2010,02,21,05,20,1.70
2010,02,21,05,21,1.70
2010,02,21,05,22,1.60
2010,02,21,05,23,1.60
2010,02,21,05,24,1.60
2010,02,21,05,25,1.60
2010,02,21,05,26,1.60
2010,02,21,05,27,1.60
2010,02,21,05,28,1.60
2010,02,21,05,29,1.70
2010,02,21,05,30,1.70
2010,02,21,05,31,1.70
2010,02,21,05,32,1.70
2010,02,21,05,33,1.70
2010,02,21,05,34,1.80
2010,02,21,05,35,1.80
2010,02,21,05,36,1.80
2010,02,21,05,37,1.80
2010,02,21,05,38,1.80
2010,02,21,05,39,1.80
2010,02,21,05,40,1.80
2010,02,21,05,41,1.80
2010,02,21,05,42,1.80
2010,02,21,05,43,1.80
2010,02,21,05,44,1.80
2010,02,21,05,45,1.80
2010,02,21,05,46,1.80
2010,02,21,05,47,1.80
2010,02,21,05,48,1.80
2010,02,21,05,49,1.70
2010,02,21,05,50,1.70
2010,02,21,05,51,1.80
2010,02,21,05,52,1.80
2010,02,21,05,53,1.80
2010,02,21,05,54,1.70
2010,02,21,05,55,1.70
2010,02,21,05,56,1.70
2010,02,21,05,57,1.70
2010,02,21,05,58,1.70
2010,02,21,05,59,1.70
2010,02,21,06,00,1.70
2010,02,21,06,01,1.60
2010,02,21,06,02,1.60
2010,02,21,06,03,1.60
2010,02,21,06,04,1.60
2010,02,21,06,05,1.60
2010,02,21,06,06,1.50
2010,02,21,06,07,1.50
2010,02,21,06,08,1.50
2010,02,21,06,09,1.50
2010,02,21,06,10,1.50
2010,02,21,06,11,1.50
2010,02,21,06,12,1.50
2010,02,21,06,13,1.50
2010,02,21,06,14,1.50
2010,02,21,06,15,1.50
2010,02,21,06,16,1.60
2010,02,21,06,17,1.60
2010,02,21,06,18,1.60
2010,02,21,06,19,1.60
2010,02,21,06,20,1.60
2010,02,21,06,21,1.60
2010,02,21,06,22,1.60
2010,02,21,06,23,1.60
2010,02,21,06,24,1.50
2010,02,21,06,25,1.50
2010,02,21,06,26,1.50
2010,02,21,06,27,1.50
2010,02,21,06,28,1.50
2010,02,21,06,29,1.50
2010,02,21,06,30,1.50
2010,02,21,06,31,1.40
2010,02,21,06,32,1.40
2010,02,21,06,33,1.50
2010,02,21,06,34,1.50
2010,02,21,06,35,1.50
2010,02,21,06,36,1.50
2010,02,21,06,37,1.50
2010,02,21,06,38,1.50
2010,02,21,06,39,1.50
2010,02,21,06,40,1.50
2010,02,21,06,41,1.50
2010,02,21,06,42,1.40
2010,02,21,06,43,1.40
2010,02,21,06,44,1.50
2010,02,21,06,45,1.50
2010,02,21,06,46,1.50
2010,02,21,06,47,1.50
2010,02,21,06,48,1.50
2010,02,21,06,49,1.50
2010,02,21,06,50,1.50
2010,02,21,06,51,1.50
2010,02,21,06,52,1.50
2010,02,21,06,53,1.50
2010,02,21,06,54,1.50
2010,02,21,06,55,1.40
2010,02,21,06,56,1.40
2010,02,21,06,57,1.40
2010,02,21,06,58,1.40
2010,02,21,06,59,1.40
2010,02,21,07,00,1.40
2010,02,21,07,01,1.40
2010,02,21,07,02,1.30
2010,02,21,07,03,1.30
2010,02,21,07,04,1.30
2010,02,21,07,05,1.30
2010,02,21,07,06,1.30
2010,02,21,07,07,1.30
2010,02,21,07,08,1.30
2010,02,21,07,09,1.30
2010,02,21,07,10,1.30
2010,02,21,07,11,1.30
2010,02,21,07,12,1.30
2010,02,21,07,13,1.30
2010,02,21,07,14,1.30
2010,02,21,07,15,1.30
2010,02,21,07,16,1.30
2010,02,21,07,17,1.30
2010,02,21,07,18,1.30
2010,02,21,07,19,1.30
2010,02,21,07,20,1.30
2010,02,21,07,21,1.30
2010,02,21,07,22,1.30
2010,02,21,07,23,1.30
2010,02,21,07,24,1.30
2010,02,21,07,25,1.30
2010,02,21,07,26,1.30
2010,02,21,07,27,1.30
2010,02,21,07,28,1.30
2010,02,21,07,29,1.30
2010,02,21,07,30,1.30
2010,02,21,07,31,1.30
2010,02,21,07,32,1.30
2010,02,21,07,33,1.30
2010,02,21,07,34,1.30
2010,02,21,07,35,1.30
2010,02,21,07,36,1.30
2010,02,21,07,37,1.30
2010,02,21,07,38,1.30
2010,02,21,07,39,1.30
2010,02,21,07,40,1.30
2010,02,21,07,41,1.30
2010,02,21,07,42,1.30
2010,02,21,07,43,1.30
2010,02,21,07,44,1.30
2010,02,21,07,45,1.30
2010,02,21,07,46,1.30
2010,02,21,07,47,1.30
2010,02,21,07,48,1.30
2010,02,21,07,49,1.30
2010,02,21,07,50,1.30
2010,02,21,07,51,1.40
2010,02,21,07,52,1.40
2010,02,21,07,53,1.40
2010,02,21,07,54,1.50
2010,02,21,07,55,1.50
2010,02,21,07,56,1.50
2010,02,21,07,57,1.50
2010,02,21,07,58,1.60
2010,02,21,07,59,1.60
2010,02,21,08,00,1.60
2010,02,21,08,01,1.60
2010,02,21,08,02,1.70
2010,02,21,08,03,1.70
2010,02,21,08,04,1.70
2010,02,21,08,05,1.80
2010,02,21,08,06,1.80
2010,02,21,08,07,1.80
2010,02,21,08,08,1.80
2010,02,21,08,09,1.80
2010,02,21,08,10,1.80
2010,02,21,08,11,1.90
2010,02,21,08,12,1.90
2010,02,21,08,13,1.90
2010,02,21,08,14,1.90
2010,02,21,08,15,1.90
2010,02,21,08,16,1.90
2010,02,21,08,17,2.00
2010,02,21,08,18,2.00
2010,02,21,08,19,2.00
2010,02,21,08,20,2.10
2010,02,21,08,21,2.10
2010,02,21,08,22,2.10
2010,02,21,08,23,2.20
2010,02,21,08,24,2.20
2010,02,21,08,25,2.20
2010,02,21,08,26,2.20
2010,02,21,08,27,2.30
2010,02,21,08,28,2.30
2010,02,21,08,29,2.30
2010,02,21,08,30,2.30
2010,02,21,08,31,2.40
2010,02,21,08,32,2.40
2010,02,21,08,33,2.40
2010,02,21,08,34,2.40
2010,02,21,08,35,2.40
2010,02,21,08,36,2.40
2010,02,21,08,37,2.50
2010,02,21,08,38,2.50
2010,02,21,08,39,2.50
2010,02,21,08,40,2.50
2010,02,21,08,41,2.60
2010,02,21,08,42,2.60
2010,02,21,08,43,2.60
2010,02,21,08,44,2.60
2010,02,21,08,45,2.70
2010,02,21,08,46,2.70
2010,02,21,08,47,2.70
2010,02,21,08,48,2.70
2010,02,21,08,49,2.70
2010,02,21,08,50,2.70
2010,02,21,08,51,2.70
2010,02,21,08,52,2.70
2010,02,21,08,53,2.80
2010,02,21,08,54,2.80
2010,02,21,08,55,2.80
2010,02,21,08,56,2.80
2010,02,21,08,57,2.80
2010,02,21,08,58,2.90
2010,02,21,08,59,2.90
2010,02,21,09,00,3.00
2010,02,21,09,01,3.00
2010,02,21,09,02,3.10
2010,02,21,09,03,3.10
2010,02,21,09,04,3.10
2010,02,21,09,05,3.10
2010,02,21,09,06,3.10
2010,02,21,09,07,3.20
2010,02,21,09,08,3.20
2010,02,21,09,09,3.20
2010,02,21,09,10,3.20
2010,02,21,09,11,3.20
2010,02,21,09,12,3.30
2010,02,21,09,13,3.30
2010,02,21,09,14,3.40
2010,02,21,09,15,3.40
2010,02,21,09,16,3.50
2010,02,21,09,17,3.50
2010,02,21,09,18,3.50
2010,02,21,09,19,3.50
2010,02,21,09,20,3.60
2010,02,21,09,21,3.60
2010,02,21,09,22,3.70
2010,02,21,09,23,3.80
2010,02,21,09,24,3.80
2010,02,21,09,25,3.90
2010,02,21,09,26,3.90
2010,02,21,09,27,4.00
2010,02,21,09,28,4.10
2010,02,21,09,29,4.10
2010,02,21,09,30,4.10
2010,02,21,09,31,4.10
2010,02,21,09,32,4.10
2010,02,21,09,33,4.10
2010,02,21,09,34,4.10
2010,02,21,09,35,4.10
2010,02,21,09,36,4.10
2010,02,21,09,37,4.10
2010,02,21,09,38,4.10
2010,02,21,09,39,4.10
2010,02,21,09,40,4.20
2010,02,21,09,41,4.20
2010,02,21,09,42,4.20
2010,02,21,09,43,4.20
2010,02,21,09,44,4.30
2010,02,21,09,45,4.30
2010,02,21,09,46,4.30
2010,02,21,09,47,4.40
2010,02,21,09,48,4.40
2010,02,21,09,49,4.40
2010,02,21,09,50,4.40
2010,02,21,09,51,4.40
2010,02,21,09,52,4.50
2010,02,21,09,53,4.50
2010,02,21,09,54,4.60
2010,02,21,09,55,4.60
2010,02,21,09,56,4.70
2010,02,21,09,57,4.80
2010,02,21,09,58,4.90
2010,02,21,09,59,4.90
2010,02,21,10,00,5.00
2010,02,21,10,01,5.00
2010,02,21,10,02,5.10
2010,02,21,10,03,5.10
2010,02,21,10,04,5.10
2010,02,21,10,05,5.20
2010,02,21,10,06,5.20
2010,02,21,10,07,5.30
2010,02,21,10,08,5.30
2010,02,21,10,09,5.40
2010,02,21,10,10,5.50
2010,02,21,10,11,5.50
2010,02,21,10,12,5.60
2010,02,21,10,13,5.70
2010,02,21,10,14,5.70
2010,02,21,10,15,5.80
2010,02,21,10,16,5.80
2010,02,21,10,17,5.90
2010,02,21,10,18,6.00
2010,02,21,10,19,6.10
2010,02,21,10,20,6.20
2010,02,21,10,21,6.30
2010,02,21,10,22,6.40
2010,02,21,10,23,6.50
2010,02,21,10,24,6.70
2010,02,21,10,25,6.80
2010,02,21,10,26,6.90
2010,02,21,10,27,7.00
2010,02,21,10,28,7.10
2010,02,21,10,29,7.10
2010,02,21,10,30,7.20
2010,02,21,10,31,7.20
2010,02,21,10,32,7.10
2010,02,21,10,33,7.10
2010,02,21,10,34,7.10
2010,02,21,10,35,7.10
2010,02,21,10,36,7.10
2010,02,21,10,37,7.10
2010,02,21,10,38,7.00
2010,02,21,10,39,7.00
2010,02,21,10,40,7.00
2010,02,21,10,41,7.00
2010,02,21,10,42,7.00
2010,02,21,10,43,7.00
2010,02,21,10,44,7.10
2010,02,21,10,45,7.20
2010,02,21,10,46,7.20
2010,02,21,10,47,7.30
2010,02,21,10,48,7.40
2010,02,21,10,49,7.50
2010,02,21,10,50,7.60
2010,02,21,10,51,7.60
2010,02,21,10,52,7.70
2010,02,21,10,53,7.80
2010,02,21,10,54,7.90
2010,02,21,10,55,8.00
2010,02,21,10,56,8.20
2010,02,21,10,57,8.30
2010,02,21,10,58,8.50
2010,02,21,10,59,8.60
2010,02,21,11,00,8.70
2010,02,21,11,01,8.80
2010,02,21,11,02,8.80
2010,02,21,11,03,8.80
2010,02,21,11,04,8.90
2010,02,21,11,05,9.00
2010,02,21,11,06,9.10
2010,02,21,11,07,9.20
2010,02,21,11,08,9.30
2010,02,21,11,09,9.30
2010,02,21,11,10,9.30
2010,02,21,11,11,9.30
2010,02,21,11,12,9.30
2010,02,21,11,13,9.30
2010,02,21,11,14,9.20
2010,02,21,11,15,9.10
2010,02,21,11,16,9.10
2010,02,21,11,17,9.00
2010,02,21,11,18,9.00
2010,02,21,11,19,9.10
2010,02,21,11,20,9.10
2010,02,21,11,21,9.10
2010,02,21,11,22,9.10
2010,02,21,11,23,9.00
2010,02,21,11,24,9.10
2010,02,21,11,25,9.10
2010,02,21,11,26,9.20
2010,02,21,11,27,9.30
2010,02,21,11,28,9.40
2010,02,21,11,29,9.40
2010,02,21,11,30,9.40
2010,02,21,11,31,9.40
2010,02,21,11,32,9.20
2010,02,21,11,33,9.20
2010,02,21,11,34,9.10
2010,02,21,11,35,9.10
2010,02,21,11,36,9.10
2010,02,21,11,37,9.10
2010,02,21,11,38,9.10
2010,02,21,11,39,9.10
2010,02,21,11,40,9.10
2010,02,21,11,41,9.10
2010,02,21,11,42,9.10
2010,02,21,11,43,9.10
2010,02,21,11,44,9.10
2010,02,21,11,45,9.20
2010,02,21,11,46,9.20
2010,02,21,11,47,9.30
2010,02,21,11,48,9.30
2010,02,21,11,49,9.40
2010,02,21,11,50,9.50
2010,02,21,11,51,9.50
2010,02,21,11,52,9.60
2010,02,21,11,53,9.50
2010,02,21,11,54,9.50
2010,02,21,11,55,9.50
2010,02,21,11,56,9.50
2010,02,21,11,57,9.60
2010,02,21,11,58,9.60
2010,02,21,11,59,9.60
2010,02,21,12,00,9.60
2010,02,21,12,01,9.60
2010,02,21,12,02,9.70
2010,02,21,12,03,9.70
2010,02,21,12,04,9.60
2010,02,21,12,05,9.40
2010,02,21,12,06,9.30
2010,02,21,12,07,9.20
2010,02,21,12,08,9.20
2010,02,21,12,09,9.20
2010,02,21,12,10,9.20
2010,02,21,12,11,9.30
2010,02,21,12,12,9.30
2010,02,21,12,13,9.40
2010,02,21,12,14,9.50
2010,02,21,12,15,9.60
2010,02,21,12,16,9.70
2010,02,21,12,17,9.80
2010,02,21,12,18,9.90
2010,02,21,12,19,10.00
2010,02,21,12,20,9.90
2010,02,21,12,21,9.90
2010,02,21,12,22,9.90
2010,02,21,12,23,9.80
2010,02,21,12,24,9.80
2010,02,21,12,25,9.70
2010,02,21,12,26,9.60
2010,02,21,12,27,9.60
2010,02,21,12,28,9.50
2010,02,21,12,29,9.50
2010,02,21,12,30,9.50
2010,02,21,12,31,9.60
2010,02,21,12,32,9.70
2010,02,21,12,33,9.70
2010,02,21,12,34,9.80
2010,02,21,12,35,9.90
2010,02,21,12,36,9.90
2010,02,21,12,37,9.90
2010,02,21,12,38,10.00
2010,02,21,12,39,10.00
2010,02,21,12,40,10.10
2010,02,21,12,41,10.10
2010,02,21,12,42,10.20
2010,02,21,12,43,10.20
2010,02,21,12,44,10.20
2010,02,21,12,45,10.30
2010,02,21,12,46,10.30
2010,02,21,12,47,10.30
2010,02,21,12,48,10.40
2010,02,21,12,49,10.30
2010,02,21,12,50,10.20
2010,02,21,12,51,10.10
2010,02,21,12,52,10.10
2010,02,21,12,53,10.00
2010,02,21,12,54,9.90
2010,02,21,12,55,10.00
2010,02,21,12,56,10.00
2010,02,21,12,57,10.10
2010,02,21,12,58,10.10
2010,02,21,12,59,10.20
2010,02,21,13,00,10.30
2010,02,21,13,01,10.30
2010,02,21,13,02,10.30
2010,02,21,13,03,10.40
2010,02,21,13,04,10.40
2010,02,21,13,05,10.50
2010,02,21,13,06,10.60
2010,02,21,13,07,10.70
2010,02,21,13,08,10.70
2010,02,21,13,09,10.80
2010,02,21,13,10,10.90
2010,02,21,13,11,10.90
2010,02,21,13,12,11.00
2010,02,21,13,13,11.00
2010,02,21,13,14,11.00
2010,02,21,13,15,11.10
2010,02,21,13,16,11.10
2010,02,21,13,17,11.20
2010,02,21,13,18,11.30
2010,02,21,13,19,11.40
2010,02,21,13,20,11.50
2010,02,21,13,21,11.50
2010,02,21,13,22,11.50
2010,02,21,13,23,11.60
2010,02,21,13,24,11.60
2010,02,21,13,25,11.50
2010,02,21,13,26,11.50
2010,02,21,13,27,11.50
2010,02,21,13,28,11.50
2010,02,21,13,29,11.50
2010,02,21,13,30,11.50
2010,02,21,13,31,11.50
2010,02,21,13,32,11.40
2010,02,21,13,33,11.30
2010,02,21,13,34,11.30
2010,02,21,13,35,11.20
2010,02,21,13,36,11.20
2010,02,21,13,37,11.20
2010,02,21,13,38,11.20
2010,02,21,13,39,11.20
2010,02,21,13,40,11.20
2010,02,21,13,41,11.20
2010,02,21,13,42,11.20
2010,02,21,13,43,11.20
2010,02,21,13,44,11.20
2010,02,21,13,45,11.20
2010,02,21,13,46,11.20
2010,02,21,13,47,11.10
2010,02,21,13,48,11.10
2010,02,21,13,49,11.10
2010,02,21,13,50,11.10
2010,02,21,13,51,11.10
2010,02,21,13,52,11.20
2010,02,21,13,53,11.20
2010,02,21,13,54,11.10
2010,02,21,13,55,11.10
2010,02,21,13,56,11.10
2010,02,21,13,57,11.20
2010,02,21,13,58,11.20
2010,02,21,13,59,11.20
2010,02,21,14,00,11.30
2010,02,21,14,01,11.30
2010,02,21,14,02,11.30
2010,02,21,14,03,11.40
2010,02,21,14,04,11.30
2010,02,21,14,05,11.40
2010,02,21,14,06,11.40
2010,02,21,14,07,11.40
2010,02,21,14,08,11.50
2010,02,21,14,09,11.50
2010,02,21,14,10,11.40
2010,02,21,14,11,11.50
2010,02,21,14,12,11.50
2010,02,21,14,13,11.60
2010,02,21,14,14,11.60
2010,02,21,14,15,11.60
2010,02,21,14,16,11.60
2010,02,21,14,17,11.60
2010,02,21,14,18,11.60
2010,02,21,14,19,11.60
2010,02,21,14,20,11.60
2010,02,21,14,21,11.60
2010,02,21,14,22,11.60
2010,02,21,14,23,11.50
2010,02,21,14,24,11.50
2010,02,21,14,25,11.50
2010,02,21,14,26,11.50
2010,02,21,14,27,11.50
2010,02,21,14,28,11.50
2010,02,21,14,29,11.60
2010,02,21,14,30,11.60
2010,02,21,14,31,11.60
2010,02,21,14,32,11.70
2010,02,21,14,33,11.70
2010,02,21,14,34,11.80
2010,02,21,14,35,11.90
2010,02,21,14,36,12.00
2010,02,21,14,37,12.00
2010,02,21,14,38,12.10
2010,02,21,14,39,12.10
2010,02,21,14,40,12.10
2010,02,21,14,41,12.20
2010,02,21,14,42,12.20
2010,02,21,14,43,12.20
2010,02,21,14,44,12.20
2010,02,21,14,45,12.20
2010,02,21,14,46,12.20
2010,02,21,14,47,12.10
2010,02,21,14,48,12.10
2010,02,21,14,49,12.00
2010,02,21,14,50,12.00
2010,02,21,14,51,12.00
2010,02,21,14,52,12.00
2010,02,21,14,53,12.10
2010,02,21,14,54,12.10
2010,02,21,14,55,12.20
2010,02,21,14,56,12.20
2010,02,21,14,57,12.20
2010,02,21,14,58,12.20
2010,02,21,14,59,12.20
2010,02,21,15,00,12.20
2010,02,21,15,01,12.20
2010,02,21,15,02,12.30
2010,02,21,15,03,12.30
2010,02,21,15,04,12.30
2010,02,21,15,05,12.30
2010,02,21,15,06,12.30
2010,02,21,15,07,12.30
2010,02,21,15,08,12.30
2010,02,21,15,09,12.20
2010,02,21,15,10,12.20
2010,02,21,15,11,12.10
2010,02,21,15,12,12.10
2010,02,21,15,13,12.00
2010,02,21,15,14,11.90
2010,02,21,15,15,11.90
2010,02,21,15,16,11.90
2010,02,21,15,17,11.80
2010,02,21,15,18,11.80
2010,02,21,15,19,11.80
2010,02,21,15,20,11.70
2010,02,21,15,21,11.80
2010,02,21,15,22,11.80
2010,02,21,15,23,11.70
2010,02,21,15,24,11.70
2010,02,21,15,25,11.70
2010,02,21,15,26,11.60
2010,02,21,15,27,11.60
2010,02,21,15,28,11.60
2010,02,21,15,29,11.60
2010,02,21,15,30,11.70
2010,02,21,15,31,11.70
2010,02,21,15,32,11.70
2010,02,21,15,33,11.70
2010,02,21,15,34,11.70
2010,02,21,15,35,11.70
2010,02,21,15,36,11.70
2010,02,21,15,37,11.70
2010,02,21,15,38,11.70
2010,02,21,15,39,11.70
2010,02,21,15,40,11.70
2010,02,21,15,41,11.70
2010,02,21,15,42,11.70
2010,02,21,15,43,11.70
2010,02,21,15,44,11.80
2010,02,21,15,45,11.80
2010,02,21,15,46,11.80
2010,02,21,15,47,11.80
2010,02,21,15,48,11.80
2010,02,21,15,49,11.70
2010,02,21,15,50,11.70
2010,02,21,15,51,11.70
2010,02,21,15,52,11.70
2010,02,21,15,53,11.80
2010,02,21,15,54,11.80
2010,02,21,15,55,11.80
2010,02,21,15,56,11.80
2010,02,21,15,57,11.80
2010,02,21,15,58,11.80
2010,02,21,15,59,11.80
2010,02,21,16,00,11.80
2010,02,21,16,01,11.80
2010,02,21,16,02,11.90
2010,02,21,16,03,11.90
2010,02,21,16,04,12.00
2010,02,21,16,05,12.00
2010,02,21,16,06,12.00
2010,02,21,16,07,12.10
2010,02,21,16,08,12.10
2010,02,21,16,09,12.00
2010,02,21,16,10,12.00
2010,02,21,16,11,12.00
2010,02,21,16,12,12.00
2010,02,21,16,13,12.00
2010,02,21,16,14,12.00
2010,02,21,16,15,12.00
2010,02,21,16,16,12.00
2010,02,21,16,17,12.00
2010,02,21,16,18,11.90
2010,02,21,16,19,11.90
2010,02,21,16,20,11.80
2010,02,21,16,21,11.80
2010,02,21,16,22,11.70
2010,02,21,16,23,11.70
2010,02,21,16,24,11.70
2010,02,21,16,25,11.60
2010,02,21,16,26,11.60
2010,02,21,16,27,11.50
2010,02,21,16,28,11.40
2010,02,21,16,29,11.40
2010,02,21,16,30,11.40
2010,02,21,16,31,11.30
2010,02,21,16,32,11.30
2010,02,21,16,33,11.30
2010,02,21,16,34,11.30
2010,02,21,16,35,11.30
2010,02,21,16,36,11.20
2010,02,21,16,37,11.20
2010,02,21,16,38,11.20
2010,02,21,16,39,11.20
2010,02,21,16,40,11.20
2010,02,21,16,41,11.20
2010,02,21,16,42,11.20
2010,02,21,16,43,11.10
2010,02,21,16,44,11.10
2010,02,21,16,45,11.00
2010,02,21,16,46,11.00
2010,02,21,16,47,10.90
2010,02,21,16,48,10.90
2010,02,21,16,49,10.80
2010,02,21,16,50,10.80
2010,02,21,16,51,10.80
2010,02,21,16,52,10.70
2010,02,21,16,53,10.70
2010,02,21,16,54,10.60
2010,02,21,16,55,10.50
2010,02,21,16,56,10.50
2010,02,21,16,57,10.40
2010,02,21,16,58,10.30
2010,02,21,16,59,10.30
2010,02,21,17,00,10.30
2010,02,21,17,01,10.20
2010,02,21,17,02,10.20
2010,02,21,17,03,10.10
2010,02,21,17,04,10.10
2010,02,21,17,05,10.00
2010,02,21,17,06,10.00
2010,02,21,17,07,10.00
2010,02,21,17,08,9.90
2010,02,21,17,09,9.80
2010,02,21,17,10,9.80
2010,02,21,17,11,9.80
2010,02,21,17,12,9.70
2010,02,21,17,13,9.70
2010,02,21,17,14,9.70
2010,02,21,17,15,9.60
2010,02,21,17,16,9.60
2010,02,21,17,17,9.50
2010,02,21,17,18,9.50
2010,02,21,17,19,9.50
2010,02,21,17,20,9.40
2010,02,21,17,21,9.40
2010,02,21,17,22,9.30
2010,02,21,17,23,9.30
2010,02,21,17,24,9.20
2010,02,21,17,25,9.20
2010,02,21,17,26,9.20
2010,02,21,17,27,9.20
2010,02,21,17,28,9.20
2010,02,21,17,29,9.10
2010,02,21,17,30,8.90
2010,02,21,17,31,8.80
2010,02,21,17,32,8.80
2010,02,21,17,33,8.80
2010,02,21,17,34,8.70
2010,02,21,17,35,8.70
2010,02,21,17,36,8.60
2010,02,21,17,37,8.60
2010,02,21,17,38,8.50
2010,02,21,17,39,8.50
2010,02,21,17,40,8.40
2010,02,21,17,41,8.40
2010,02,21,17,42,8.40
2010,02,21,17,43,8.30
2010,02,21,17,44,8.30
2010,02,21,17,45,8.20
2010,02,21,17,46,8.20
2010,02,21,17,47,8.20
2010,02,21,17,48,8.10
2010,02,21,17,49,8.10
2010,02,21,17,50,8.00
2010,02,21,17,51,8.00
2010,02,21,17,52,7.90
2010,02,21,17,53,7.90
2010,02,21,17,54,7.80